Погода в Чернодье

Россия / Орловская область     52°28′43″N   35°43′25″E
темп.,
°C
ветер,
м/с
пор.,
м/с
влажн.,
%
обл.,
%
осадки,
мм/ч
давл.,
гПа
погр.,
м
28 сентября, вт
вт2800:00+7с41096100 0.0 1023324
03:00+7с4895100 0.0 1023348
06:00+7с499493 0.1 1024440
09:00+8ссв4892100 0.2 1025522
12:00+8всв578198 0.3 1027839
15:00+8св467697 0.3 1028917
18:00+7св578397 0.0 1029599
21:00+7св5985100 0.0 1031702
29 сентября, ср
ср2900:00+6всв4879100 0.0 1033498
03:00+6св3779100 0.0 1033338
06:00+3св38885 0.0 1034190
09:00+5св57735 0.0 1035401
12:00+9св45565 0.0 10351027
15:00+11св44495 0.0 10331184
18:00+8св336414 0.0 103335
21:00+6всв337195 0.0 103433
30 сентября, чт
чт3000:00+5всв2272100 0.0 103517
03:00+5св1174100 0.0 103510
06:00+4ссв227941 0.0 103514
09:00+7всв23685 0.0 1036220
12:00+11всв23565 0.0 1035880
15:00+12всв22532 0.0 10341170
18:00+9св22675 0.0 103410
21:00+7в22755 0.0 103510
1 октября, пт
пт100:00+6юв12785 0.0 103610
03:00+5юв11825 0.0 103610
06:00+5юв11844 0.0 103610
09:00+8юв12715 0.0 1036168
12:00+12юв22585 0.0 1036839
15:00+13ю22525 0.0 10351099
18:00+10юв11642 0.0 103410
21:00+8юв22700 0.0 103510
2 октября, сб
сб200:00+7ююв22740 0.0 103511
03:00+6ююв22775 0.0 103517
06:00+5ююв22795 0.0 103521
09:00+9ююв346753 0.0 1035186
12:00+13ю3453100 0.0 1034802
15:00+14ююв44505 0.0 10331113
18:00+11юв33655 0.0 103228
21:00+9ююв357161 0.0 103269